Location: Ahausen
(50.4985°N, 8.2722°E)
Time: 00:53:25
(UTC+00:00)

XW-2A - Visible Passes

Search period start: 28 June 2022 00:00
Search period end: 08 July 2022 00:00
Orbit: 398 x 413 km, 97.2° (Epoch: 27 June)

Date Brightness Start Highest point End Pass type
(mag) Time Alt. Az. Time Alt. Az. Time Alt. Az.
28 Jun ? 20:29:07 10° S 20:32:10 57° W 20:35:15 10° NNW visible
29 Jun ? 21:13:31 10° SW 21:15:37 17° W 21:17:42 10° NW visible
30 Jun ? 20:23:39 10° S 20:26:44 68° WSW 20:29:50 10° NNW visible
01 Jul ? 21:07:45 10° SW 21:10:04 19° W 21:12:24 10° NW visible
03 Jul ? 21:01:53 10° SSW 21:04:23 22° W 21:06:54 10° NW visible
05 Jul ? 20:55:54 10° SSW 20:58:33 26° W 21:01:14 10° NW visible
07 Jul ? 20:49:49 10° SSW 20:52:36 31° W 20:55:25 10° NNW visible
